Location: Bonny Doon Airfield
(37.0704°N, 122.1252°W)
Time: 03:08:16
(UTC-08:00)

Vanguard 2 Rocket - Visible Passes

Search period start: 16 December 2017 00:00
Search period end: 26 December 2017 00:00
Orbit: 556 x 3326 km, 32.9° (Epoch: 15 December)

Date Brightness Start Highest point End Pass type
(mag) Time Alt. Az. Time Alt. Az. Time Alt. Az.
16 Dec 10.7 02:16:24 13° SSE 02:16:24 13° SSE 02:17:31 10° SSE visible
16 Dec 8.9 18:00:50 10° SW 18:10:07 53° SSE 18:21:56 19° E visible
16 Dec 9.0 20:13:14 10° WSW 20:25:59 76° S 20:27:44 72° SE visible
16 Dec 10.1 22:27:37 10° W 22:33:32 32° W 22:33:32 32° W visible
17 Dec 9.0 17:02:35 10° SSW 17:10:19 40° SE 17:23:10 10° E visible
17 Dec 8.9 19:13:56 10° WSW 19:24:52 72° SSE 19:31:30 44° E visible
17 Dec 9.4 21:27:32 10° W 21:37:18 56° WSW 21:37:18 56° WSW visible
17 Dec 10.8 23:42:55 10° W 23:43:06 11° W 23:43:06 11° W visible
18 Dec 8.8 18:15:01 10° WSW 18:24:17 63° SSE 18:35:17 23° E visible
18 Dec 9.0 20:27:50 10° W 20:40:30 76° S 20:41:05 75° SSE visible
18 Dec 10.3 22:42:16 10° W 22:46:53 26° W 22:46:53 26° W visible
19 Dec 8.7 17:16:30 10° SW 17:24:17 51° SSE 17:37:54 10° E visible
19 Dec 8.8 19:28:28 10° WSW 19:39:20 75° S 19:44:52 49° ESE visible
19 Dec 9.6 21:42:09 10° W 21:50:40 47° WSW 21:50:40 47° WSW visible
20 Dec 8.6 18:29:27 10° WSW 18:38:40 70° SSE 18:48:41 26° E visible
20 Dec 9.0 20:42:26 10° W 20:54:30 71° SSW 20:54:30 71° SSW visible
20 Dec 10.4 22:57:03 10° W 23:00:18 20° W 23:00:18 20° W visible
21 Dec 8.5 17:30:44 10° WSW 17:38:30 61° SSE 17:52:29 10° E visible
21 Dec 8.8 19:43:05 10° W 19:53:52 74° S 19:58:21 54° ESE visible
21 Dec 9.8 21:56:51 10° W 22:04:10 39° WSW 22:04:10 39° WSW visible
22 Dec 8.6 18:43:59 10° W 18:53:10 73° S 19:02:15 29° E visible
22 Dec 9.1 20:57:06 10° W 21:08:03 62° SW 21:08:03 62° SW visible
22 Dec 10.6 23:12:07 10° W 23:13:53 15° W 23:13:53 15° W visible
23 Dec 8.4 17:45:11 10° WSW 17:52:55 68° S 18:06:12 12° E visible
23 Dec 8.8 19:57:43 10° W 20:08:24 69° S 20:12:01 56° SE visible
23 Dec 10.0 22:11:41 10° W 22:17:50 32° WSW 22:17:50 32° WSW visible
24 Dec 8.6 18:58:37 10° W 19:07:43 72° S 19:16:02 32° ESE visible
24 Dec 9.3 21:11:50 10° W 21:21:51 52° SW 21:21:51 52° SW visible
25 Dec 8.3 17:59:45 10° W 18:07:27 71° S 18:20:07 13° E visible
25 Dec 9.0 20:12:23 10° W 20:22:54 61° SSW 20:25:57 53° SSE visible
25 Dec 10.2 22:26:51 10° W 22:31:46 24° WSW 22:31:46 24° WSW visible
